sat.trackr.live / text

‹ back to catalog

STARLINK-3311

NORAD 50849 · 2022-001AY

PAYLOAD ACTIVE UNKNOWN

§ Identity

Operator
Country
US
Launch date
2022-01-06
Launch site
AFETR
Launch vehicle
Mass (kg)
RCS (m²)

Purposes: comms

External: N2YO · Heavens-Above · Gunter

§ Orbital elements

Epoch: 2026-05-24T20:16:28.067520Z

Period
95.44 min
Inclination
53.2125°
Eccentricity
0.0001148
Mean motion
15.08835485 rev/d
Perigee alt
539.0 km
Apogee alt
540.6 km
Semi-major
6,917.9 km
B*
1.3203e-5
RAAN
197.2486°
Arg perigee
97.0021°
Mean anomaly
263.1101°
Rev number
24,176

§ Raw data

STARLINK-33111 50849U 22001AY  26144.84476930 -.00000078  00000+0  13203-4 0  99972 50849  53.2125 197.2486 0001148  97.0021 263.1101 15.08835485241767

JSON: /api/v1/satellites/50849 · /tle

For live sub-satellite position, see the globe view (requires WebGL).

§ Visibility from observer

Set your observer location to see the next 7 days of passes ≥ 10°. The values pass through the URL so the page stays shareable.

No JS? Fill the form by hand. The geolocation button needs JavaScript.